Time,TemperatureF,DewpointF,PressureIn,WindDirection,WindDirectionDegrees,WindSpeedMPH,WindSpeedGustMPH,Humidity,HourlyPrecipIn,Conditions,Clouds,dailyrainin,SoftwareType,DateUTC
2013-05-31 00:02:00,70.0,70.0,30.15,SSW,200,3.0,-999.0,100,-99.99,,,-99.99,,2013-05-31 04:02:00,
2013-05-31 00:12:00,72.0,70.0,30.15,SSW,210,2.0,-999.0,94,-99.99,,,-99.99,,2013-05-31 04:12:00,
2013-05-31 00:22:00,70.0,68.0,30.15,WSW,240,5.0,-999.0,94,-99.99,,,-99.99,,2013-05-31 04:22:00,
2013-05-31 00:33:00,70.0,70.0,30.15,WSW,240,6.0,-999.0,100,-99.99,,,-99.99,,2013-05-31 04:33:00,
2013-05-31 00:42:00,72.0,70.0,30.15,WSW,240,5.0,-999.0,94,-99.99,,,-99.99,,2013-05-31 04:42:00,
2013-05-31 00:53:00,73.0,70.0,30.15,WSW,240,5.0,-999.0,88,-99.99,,,-99.99,,2013-05-31 04:53:00,
2013-05-31 01:02:00,73.0,70.0,30.15,WSW,240,5.0,-999.0,88,-99.99,,,-99.99,,2013-05-31 05:02:00,
2013-05-31 01:12:00,72.0,70.0,30.15,SW,230,3.0,-999.0,94,-99.99,,,-99.99,,2013-05-31 05:12:00,
2013-05-31 01:22:00,68.0,68.0,30.15,South,190,2.0,-999.0,100,-99.99,,,-99.99,,2013-05-31 05:22:00,
2013-05-31 01:32:00,68.0,68.0,30.15,North,0,0.0,-999.0,100,-99.99,,,-99.99,,2013-05-31 05:32:00,
2013-05-31 01:42:00,68.0,68.0,30.15,North,0,0.0,-999.0,100,-99.99,,,-99.99,,2013-05-31 05:42:00,
2013-05-31 01:52:00,66.0,66.0,30.14,North,0,0.0,-999.0,100,-99.99,,,-99.99,,2013-05-31 05:52:00,
2013-05-31 02:02:00,66.0,66.0,30.14,North,0,0.0,-999.0,100,-99.99,,,-99.99,,2013-05-31 06:02:00,
2013-05-31 02:12:00,68.0,68.0,30.15,WSW,240,2.0,-999.0,100,-99.99,,,-99.99,,2013-05-31 06:12:00,
2013-05-31 02:22:00,68.0,68.0,30.15,WSW,250,3.0,-999.0,100,-99.99,,,-99.99,,2013-05-31 06:22:00,
2013-05-31 02:32:00,70.0,70.0,30.14,WSW,250,5.0,-999.0,100,-99.99,,,-99.99,,2013-05-31 06:32:00,
2013-05-31 02:41:00,70.0,70.0,30.14,WSW,250,3.0,-999.0,100,-99.99,,,-99.99,,2013-05-31 06:41:00,
2013-05-31 02:51:00,70.0,70.0,30.14,WSW,250,6.0,-999.0,100,-99.99,,,-99.99,,2013-05-31 06:51:00,
2013-05-31 03:02:00,70.0,70.0,30.14,WSW,250,6.0,-999.0,100,-99.99,,,-99.99,,2013-05-31 07:02:00,
2013-05-31 03:11:00,72.0,72.0,30.14,WSW,250,6.0,-999.0,100,-99.99,,,-99.99,,2013-05-31 07:11:00,
2013-05-31 03:21:00,70.0,70.0,30.14,West,270,5.0,-999.0,100,-99.99,,,-99.99,,2013-05-31 07:21:00,
2013-05-31 03:32:00,70.0,70.0,30.14,WSW,250,6.0,-999.0,100,-99.99,,,-99.99,,2013-05-31 07:32:00,
2013-05-31 03:41:00,70.0,70.0,30.14,West,260,6.0,-999.0,100,-99.99,,,-99.99,,2013-05-31 07:41:00,
2013-05-31 03:52:00,68.0,68.0,30.14,WSW,240,7.0,-999.0,100,-99.99,,,-99.99,,2013-05-31 07:52:00,
2013-05-31 04:02:00,68.0,68.0,30.14,WSW,240,7.0,-999.0,100,-99.99,,,-99.99,,2013-05-31 08:02:00,
2013-05-31 04:11:00,70.0,70.0,30.15,WSW,240,5.0,-999.0,100,-99.99,,,-99.99,,2013-05-31 08:11:00,
2013-05-31 04:22:00,68.0,68.0,30.15,WSW,250,5.0,-999.0,100,-99.99,,,-99.99,,2013-05-31 08:22:00,
2013-05-31 04:32:00,68.0,68.0,30.15,WSW,240,7.0,-999.0,100,-99.99,,,-99.99,,2013-05-31 08:32:00,
2013-05-31 04:42:00,68.0,68.0,30.15,WSW,250,6.0,-999.0,100,-99.99,,,-99.99,,2013-05-31 08:42:00,
2013-05-31 04:51:00,68.0,68.0,30.15,WSW,240,3.0,-999.0,100,-99.99,,,-99.99,,2013-05-31 08:51:00,
2013-05-31 05:01:00,68.0,68.0,30.15,WSW,240,3.0,-999.0,100,-99.99,,,-99.99,,2013-05-31 09:01:00,
2013-05-31 05:11:00,70.0,70.0,30.15,West,260,6.0,-999.0,100,-99.99,,,-99.99,,2013-05-31 09:11:00,
2013-05-31 05:21:00,68.0,68.0,30.15,WSW,250,7.0,-999.0,100,-99.99,,,-99.99,,2013-05-31 09:21:00,
2013-05-31 05:32:00,68.0,68.0,30.16,West,260,6.0,-999.0,100,-99.99,,,-99.99,,2013-05-31 09:32:00,
2013-05-31 05:43:00,68.0,68.0,30.16,WSW,250,6.0,-999.0,100,-99.99,,,-99.99,,2013-05-31 09:43:00,
2013-05-31 05:53:00,68.0,68.0,30.16,WSW,250,5.0,-999.0,100,-99.99,,,-99.99,,2013-05-31 09:53:00,
2013-05-31 06:02:00,68.0,68.0,30.16,WSW,250,5.0,-999.0,100,-99.99,,,-99.99,,2013-05-31 10:02:00,
2013-05-31 06:12:00,70.0,70.0,30.16,WSW,250,5.0,-999.0,100,-99.99,,,-99.99,,2013-05-31 10:12:00,
2013-05-31 06:22:00,68.0,68.0,30.17,WSW,250,5.0,-999.0,100,-99.99,,,-99.99,,2013-05-31 10:22:00,
2013-05-31 06:33:00,68.0,68.0,30.17,WSW,250,7.0,-999.0,100,-99.99,,,-99.99,,2013-05-31 10:33:00,
2013-05-31 06:42:00,70.0,70.0,30.17,West,260,5.0,-999.0,100,-99.99,,,-99.99,,2013-05-31 10:42:00,
2013-05-31 06:52:00,70.0,70.0,30.17,WSW,240,5.0,-999.0,100,-99.99,,,-99.99,,2013-05-31 10:52:00,
2013-05-31 07:02:00,70.0,70.0,30.17,WSW,240,5.0,-999.0,100,-99.99,,,-99.99,,2013-05-31 11:02:00,
2013-05-31 07:12:00,72.0,72.0,30.17,WSW,240,7.0,-999.0,100,-99.99,,,-99.99,,2013-05-31 11:12:00,
2013-05-31 07:22:00,72.0,72.0,30.17,WSW,250,6.0,-999.0,100,-99.99,,,-99.99,,2013-05-31 11:22:00,
2013-05-31 07:32:00,73.0,72.0,30.17,WSW,240,6.0,-999.0,94,-99.99,,,-99.99,,2013-05-31 11:32:00,
2013-05-31 07:42:00,73.0,72.0,30.17,West,260,5.0,-999.0,94,-99.99,,,-99.99,,2013-05-31 11:42:00,
2013-05-31 07:52:00,75.0,72.0,30.17,West,260,7.0,-999.0,88,-99.99,,,-99.99,,2013-05-31 11:52:00,
2013-05-31 08:01:00,75.0,72.0,30.17,West,260,7.0,-999.0,88,-99.99,,,-99.99,,2013-05-31 12:01:00,
2013-05-31 08:11:00,75.0,72.0,30.18,WSW,250,8.0,-999.0,88,-99.99,,,-99.99,,2013-05-31 12:11:00,
2013-05-31 08:22:00,75.0,72.0,30.18,West,260,9.0,-999.0,88,-99.99,,,-99.99,,2013-05-31 12:22:00,
2013-05-31 08:32:00,77.0,72.0,30.18,WSW,240,7.0,-999.0,83,-99.99,,,-99.99,,2013-05-31 12:32:00,
2013-05-31 08:41:00,77.0,72.0,30.18,West,260,8.0,-999.0,83,-99.99,,,-99.99,,2013-05-31 12:41:00,
2013-05-31 08:52:00,77.0,70.0,30.18,West,260,7.0,-999.0,78,-99.99,,,-99.99,,2013-05-31 12:52:00,
2013-05-31 09:01:00,77.0,70.0,30.18,West,260,7.0,-999.0,78,-99.99,,,-99.99,,2013-05-31 13:01:00,
2013-05-31 09:11:00,79.0,70.0,30.17,SW,230,10.0,-999.0,73,-99.99,,,-99.99,,2013-05-31 13:11:00,
2013-05-31 09:21:00,77.0,68.0,30.17,West,260,8.0,-999.0,73,-99.99,,,-99.99,,2013-05-31 13:21:00,
2013-05-31 09:32:00,79.0,68.0,30.17,West,260,9.0,-999.0,69,-99.99,,,-99.99,,2013-05-31 13:32:00,
2013-05-31 09:42:00,79.0,68.0,30.17,West,260,8.0,-999.0,69,-99.99,,,-99.99,,2013-05-31 13:42:00,
2013-05-31 09:52:00,79.0,66.0,30.17,WSW,240,9.0,-999.0,65,-99.99,,,-99.99,,2013-05-31 13:52:00,
2013-05-31 10:02:00,79.0,66.0,30.17,WSW,240,9.0,-999.0,65,-99.99,,,-99.99,,2013-05-31 14:02:00,
2013-05-31 10:11:00,81.0,68.0,30.17,WSW,240,12.0,-999.0,65,-99.99,,,-99.99,,2013-05-31 14:11:00,
2013-05-31 10:21:00,81.0,66.0,30.16,West,260,9.0,-999.0,61,-99.99,,,-99.99,,2013-05-31 14:21:00,
2013-05-31 10:32:00,81.0,68.0,30.16,WSW,250,9.0,-999.0,65,-99.99,,,-99.99,,2013-05-31 14:32:00,
2013-05-31 10:42:00,81.0,68.0,30.16,WSW,240,8.0,-999.0,65,-99.99,,,-99.99,,2013-05-31 14:42:00,
2013-05-31 10:52:00,81.0,68.0,30.16,WSW,250,7.0,-999.0,65,-99.99,,,-99.99,,2013-05-31 14:52:00,
2013-05-31 11:01:00,81.0,68.0,30.16,WSW,250,7.0,-999.0,65,-99.99,,,-99.99,,2013-05-31 15:01:00,
2013-05-31 11:11:00,82.0,68.0,30.16,SW,220,8.0,-999.0,61,-99.99,,,-99.99,,2013-05-31 15:11:00,
2013-05-31 11:21:00,81.0,68.0,30.16,WSW,240,9.0,-999.0,65,-99.99,,,-99.99,,2013-05-31 15:21:00,
2013-05-31 11:33:00,82.0,66.0,30.16,WSW,250,9.0,-999.0,58,-99.99,,,-99.99,,2013-05-31 15:33:00,
2013-05-31 11:43:00,82.0,66.0,30.16,West,280,9.0,-999.0,58,-99.99,,,-99.99,,2013-05-31 15:43:00,
2013-05-31 11:53:00,84.0,66.0,30.15,West,260,9.0,-999.0,54,-99.99,,,-99.99,,2013-05-31 15:53:00,
2013-05-31 12:03:00,84.0,66.0,30.15,West,260,9.0,-999.0,54,-99.99,,,-99.99,,2013-05-31 16:03:00,
2013-05-31 12:12:00,84.0,66.0,30.15,West,270,8.0,-999.0,54,-99.99,,,-99.99,,2013-05-31 16:12:00,
2013-05-31 12:22:00,84.0,66.0,30.15,WSW,250,13.0,-999.0,54,-99.99,,,-99.99,,2013-05-31 16:22:00,
2013-05-31 12:33:00,84.0,66.0,30.15,WSW,240,13.0,-999.0,54,-99.99,,,-99.99,,2013-05-31 16:33:00,
2013-05-31 12:42:00,84.0,66.0,30.15,WSW,240,15.0,-999.0,54,-99.99,,,-99.99,,2013-05-31 16:42:00,
2013-05-31 12:52:00,84.0,66.0,30.15,WSW,240,10.0,-999.0,54,-99.99,,,-99.99,,2013-05-31 16:52:00,
2013-05-31 13:02:00,84.0,66.0,30.15,WSW,240,10.0,-999.0,54,-99.99,,,-99.99,,2013-05-31 17:02:00,
2013-05-31 13:12:00,86.0,66.0,30.14,WSW,250,14.0,18.0,51,-99.99,,,-99.99,,2013-05-31 17:12:00,
2013-05-31 13:22:00,86.0,66.0,30.14,West,260,14.0,17.0,51,-99.99,,,-99.99,,2013-05-31 17:22:00,
2013-05-31 13:32:00,86.0,66.0,30.14,West,260,10.0,-999.0,51,-99.99,,,-99.99,,2013-05-31 17:32:00,
2013-05-31 13:42:00,86.0,66.0,30.13,SW,230,8.0,-999.0,51,-99.99,,,-99.99,,2013-05-31 17:42:00,
2013-05-31 13:52:00,88.0,66.0,30.13,SW,220,8.0,-999.0,48,-99.99,,,-99.99,,2013-05-31 17:52:00,
2013-05-31 14:02:00,88.0,66.0,30.13,SW,220,8.0,-999.0,48,-99.99,,,-99.99,,2013-05-31 18:02:00,
2013-05-31 14:12:00,90.0,64.0,30.12,West,260,14.0,-999.0,43,-99.99,,,-99.99,,2013-05-31 18:12:00,
2013-05-31 14:22:00,90.0,64.0,30.12,WSW,250,12.0,-999.0,43,-99.99,,,-99.99,,2013-05-31 18:22:00,
2013-05-31 14:32:00,90.0,68.0,30.11,SSW,210,7.0,-999.0,49,-99.99,,,-99.99,,2013-05-31 18:32:00,
2013-05-31 14:42:00,90.0,68.0,30.11,South,170,12.0,16.0,49,-99.99,,,-99.99,,2013-05-31 18:42:00,
2013-05-31 14:52:00,90.0,68.0,30.11,SSE,160,9.0,-999.0,49,-99.99,,,-99.99,,2013-05-31 18:52:00,
2013-05-31 15:02:00,90.0,68.0,30.11,SSE,160,9.0,-999.0,49,-99.99,,,-99.99,,2013-05-31 19:02:00,
2013-05-31 15:11:00,90.0,70.0,30.11,South,180,13.0,-999.0,52,-99.99,,,-99.99,,2013-05-31 19:11:00,
2013-05-31 15:22:00,88.0,68.0,30.11,SSW,200,10.0,-999.0,51,-99.99,,,-99.99,,2013-05-31 19:22:00,
2013-05-31 15:32:00,88.0,68.0,30.10,South,180,9.0,-999.0,51,-99.99,,,-99.99,,2013-05-31 19:32:00,
2013-05-31 15:42:00,88.0,68.0,30.10,South,170,10.0,-999.0,51,-99.99,,,-99.99,,2013-05-31 19:42:00,
2013-05-31 15:52:00,88.0,68.0,30.10,SSW,200,9.0,-999.0,51,-99.99,,,-99.99,,2013-05-31 19:52:00,
2013-05-31 16:02:00,88.0,68.0,30.10,SSW,200,9.0,-999.0,51,-99.99,,,-99.99,,2013-05-31 20:02:00,
2013-05-31 16:11:00,90.0,70.0,30.09,SSW,210,7.0,-999.0,52,-99.99,,,-99.99,,2013-05-31 20:11:00,
2013-05-31 16:22:00,88.0,68.0,30.09,SSW,210,12.0,-999.0,51,-99.99,,,-99.99,,2013-05-31 20:22:00,
2013-05-31 16:32:00,88.0,68.0,30.09,SSW,200,8.0,-999.0,51,-99.99,,,-99.99,,2013-05-31 20:32:00,
2013-05-31 16:42:00,88.0,68.0,30.09,SSW,200,12.0,16.0,51,-99.99,,,-99.99,,2013-05-31 20:42:00,
2013-05-31 16:52:00,88.0,68.0,30.08,South,180,13.0,-999.0,51,-99.99,,,-99.99,,2013-05-31 20:52:00,
2013-05-31 17:01:00,88.0,68.0,30.08,South,180,13.0,-999.0,51,-99.99,,,-99.99,,2013-05-31 21:01:00,
2013-05-31 17:11:00,88.0,68.0,30.08,SSW,200,13.0,-999.0,51,-99.99,,,-99.99,,2013-05-31 21:11:00,
2013-05-31 17:22:00,86.0,68.0,30.08,SSW,200,9.0,17.0,55,-99.99,,,-99.99,,2013-05-31 21:22:00,
2013-05-31 17:32:00,86.0,68.0,30.07,SSW,200,7.0,-999.0,55,-99.99,,,-99.99,,2013-05-31 21:32:00,
2013-05-31 17:42:00,86.0,68.0,30.07,South,190,13.0,-999.0,55,-99.99,,,-99.99,,2013-05-31 21:42:00,
2013-05-31 17:53:00,86.0,66.0,30.07,SSW,210,9.0,-999.0,51,-99.99,,,-99.99,,2013-05-31 21:53:00,
2013-05-31 18:02:00,86.0,66.0,30.07,SSW,210,9.0,-999.0,51,-99.99,,,-99.99,,2013-05-31 22:02:00,
2013-05-31 18:12:00,88.0,68.0,30.07,SSW,200,12.0,-999.0,51,-99.99,,,-99.99,,2013-05-31 22:12:00,
2013-05-31 18:22:00,86.0,68.0,30.07,SSW,210,8.0,-999.0,55,-99.99,,,-99.99,,2013-05-31 22:22:00,
2013-05-31 18:33:00,84.0,68.0,30.07,SSW,200,9.0,-999.0,58,-99.99,,,-99.99,,2013-05-31 22:33:00,
2013-05-31 18:42:00,84.0,68.0,30.07,South,190,10.0,-999.0,58,-99.99,,,-99.99,,2013-05-31 22:42:00,
2013-05-31 18:52:00,84.0,68.0,30.06,SW,220,6.0,-999.0,58,-99.99,,,-99.99,,2013-05-31 22:52:00,
2013-05-31 19:02:00,84.0,68.0,30.06,SW,220,6.0,-999.0,58,-99.99,,,-99.99,,2013-05-31 23:02:00,
2013-05-31 19:12:00,82.0,68.0,30.06,SSW,200,8.0,-999.0,61,-99.99,,,-99.99,,2013-05-31 23:12:00,
2013-05-31 19:21:00,82.0,68.0,30.06,South,190,8.0,-999.0,61,-99.99,,,-99.99,,2013-05-31 23:21:00,
2013-05-31 19:32:00,82.0,68.0,30.06,SSW,200,7.0,-999.0,61,-99.99,,,-99.99,,2013-05-31 23:32:00,
2013-05-31 19:42:00,81.0,68.0,30.06,South,190,6.0,-999.0,65,-99.99,,,-99.99,,2013-05-31 23:42:00,
2013-05-31 19:52:00,81.0,68.0,30.06,SSW,200,6.0,-999.0,65,-99.99,,,-99.99,,2013-05-31 23:52:00,
2013-05-31 20:01:00,81.0,68.0,30.06,SSW,200,6.0,-999.0,65,-99.99,,,-99.99,,2013-06-01 00:01:00,
2013-05-31 20:12:00,77.0,68.0,30.06,South,180,6.0,-999.0,73,-99.99,,,-99.99,,2013-06-01 00:12:00,
2013-05-31 20:22:00,77.0,68.0,30.06,SSW,210,5.0,-999.0,73,-99.99,,,-99.99,,2013-06-01 00:22:00,
2013-05-31 20:32:00,75.0,68.0,30.06,SSW,210,6.0,-999.0,78,-99.99,,,-99.99,,2013-06-01 00:32:00,
2013-05-31 20:42:00,75.0,68.0,30.06,SSW,210,7.0,-999.0,78,-99.99,,,-99.99,,2013-06-01 00:42:00,
2013-05-31 20:52:00,75.0,68.0,30.06,SW,220,5.0,-999.0,78,-99.99,,,-99.99,,2013-06-01 00:52:00,
2013-05-31 21:01:00,75.0,68.0,30.06,SW,220,5.0,-999.0,78,-99.99,,,-99.99,,2013-06-01 01:01:00,
2013-05-31 21:11:00,75.0,68.0,30.06,SSW,210,7.0,-999.0,78,-99.99,,,-99.99,,2013-06-01 01:11:00,
2013-05-31 21:22:00,75.0,68.0,30.06,SSW,210,6.0,-999.0,78,-99.99,,,-99.99,,2013-06-01 01:22:00,
2013-05-31 21:32:00,75.0,68.0,30.07,SSW,210,5.0,-999.0,78,-99.99,,,-99.99,,2013-06-01 01:32:00,
2013-05-31 21:42:00,75.0,68.0,30.07,SW,220,7.0,-999.0,78,-99.99,,,-99.99,,2013-06-01 01:42:00,
2013-05-31 21:52:00,73.0,68.0,30.07,SSW,210,8.0,-999.0,83,-99.99,,,-99.99,,2013-06-01 01:52:00,
2013-05-31 22:01:00,73.0,68.0,30.07,SSW,210,8.0,-999.0,83,-99.99,,,-99.99,,2013-06-01 02:01:00,
2013-05-31 22:11:00,73.0,68.0,30.08,SSW,210,6.0,-999.0,83,-99.99,,,-99.99,,2013-06-01 02:11:00,
2013-05-31 22:21:00,73.0,66.0,30.08,SW,220,8.0,-999.0,78,-99.99,,,-99.99,,2013-06-01 02:21:00,
2013-05-31 22:32:00,73.0,66.0,30.08,SSW,210,5.0,-999.0,78,-99.99,,,-99.99,,2013-06-01 02:32:00,
2013-05-31 22:42:00,73.0,66.0,30.08,SSW,210,5.0,-999.0,78,-99.99,,,-99.99,,2013-06-01 02:42:00,
2013-05-31 22:52:00,73.0,66.0,30.09,SSW,200,5.0,-999.0,78,-99.99,,,-99.99,,2013-06-01 02:52:00,
2013-05-31 23:02:00,73.0,66.0,30.09,SSW,200,5.0,-999.0,78,-99.99,,,-99.99,,2013-06-01 03:02:00,
2013-05-31 23:11:00,72.0,66.0,30.08,SSW,210,5.0,-999.0,83,-99.99,,,-99.99,,2013-06-01 03:11:00,
2013-05-31 23:21:00,72.0,66.0,30.08,SSW,200,3.0,-999.0,83,-99.99,,,-99.99,,2013-06-01 03:21:00,
2013-05-31 23:33:00,72.0,66.0,30.08,SSW,210,2.0,-999.0,83,-99.99,,,-99.99,,2013-06-01 03:33:00,
2013-05-31 23:43:00,72.0,66.0,30.08,SW,220,3.0,-999.0,83,-99.99,,,-99.99,,2013-06-01 03:43:00,
2013-05-31 23:53:00,70.0,66.0,30.08,SW,220,3.0,-999.0,88,-99.99,,,-99.99,,2013-06-01 03:53:00,